H1 CPF 2 NER 2024 5 29 9 150 01 glonass146 H2 2216101 9146 54377 2024 5 29 0 0 0 2024 6 1 23 45 0 900 1 1 0 0 0 1 H9 10 0 60459 0.00000 0 -9337892.865 15150523.805 18268649.656 10 0 60459 900.00000 0 -11099050.551 16338380.348 16130422.360 10 0 60459 1800.00000 0 -12538240.385 17488853.259 13678641.559 10 0 60459 2700.00000 0 -13642451.367 18541186.275 10960860.776 10 0 60459 3600.00000 0 -14411686.135 19435249.085 8029851.896 10 0 60459 4500.00000 0 -14858718.484 20114152.403 4942581.448 10 0 60459 5400.00000 0 -15008319.700 20526748.353 1759100.657 10 0 60459 6300.00000 0 -14895986.526 20629909.384 -1458628.849 10 0 60459 7200.00000 0 -14566224.918 20390487.987 -4647950.050 10 0 60459 8100.00000 0 -14070462.948 19786872.754 -7746741.548 10 0 60459 9000.00000 0 -13464682.225 18810073.438 -10694639.334 10 0 60459 9900.00000 0 -12806869.398 17464287.715 -13434224.114 10 0 60459 10800.00000 0 -12154397.012 15766924.578 -15912149.816 10 0 60459 11700.00000 0 -11561445.938 13748082.488 -18080190.250 10 0 60459 12600.00000 0 -11076579.635 11449503.761 -19896182.772 10 0 60459 13500.00000 0 -10740573.689 8923048.881 -21324850.230 10 0 60459 14400.00000 0 -10584592.899 6228754.695 -22338485.192 10 0 60459 15300.00000 0 -10628793.052 3432557.925 -22917483.499 10 0 60459 16200.00000 0 -10881406.133 603779.170 -23050717.383 10 0 60459 17100.00000 0 -11338347.082 -2187527.637 -22735741.725 10 0 60459 18000.00000 0 -11983357.914 -4873250.127 -21978830.332 10 0 60459 18900.00000 0 -12788682.359 -7389805.920 -20794842.431 10 0 60459 19800.00000 0 -13716241.775 -9680537.778 -19206922.796 10 0 60459 20700.00000 0 -14719262.147 -11697817.029 -17246042.040 10 0 60459 21600.00000 0 -15744283.104 -13404769.249 -14950386.538 10 0 60459 22500.00000 0 -16733464.049 -14776552.142 -12364610.238 10 0 60459 23400.00000 0 -17627090.129 -15801134.297 -9538963.164 10 0 60459 24300.00000 0 -18366172.608 -16479544.371 -6528313.684 10 0 60459 25200.00000 0 -18895034.313 -16825582.331 -3391083.575 10 0 60459 26100.00000 0 -19163771.645 -16865006.725 -188116.558 10 0 60459 27000.00000 0 -19130489.827 -16634233.711 3018497.853 10 0 60459 27900.00000 0 -18763217.712 -16178603.777 6166622.590 10 0 60459 28800.00000 0 -18041421.853 -15550289.924 9195270.391 10 0 60459 29700.00000 0 -16957056.298 -14805935.751 12045777.527 10 0 60459 30600.00000 0 -15515103.886 -14004122.953 14662931.735 10 0 60459 31500.00000 0 -13733585.905 -13202774.499 16996033.173 10 0 60459 32400.00000 0 -11643038.924 -12456602.277 18999868.627 10 0 60459 33300.00000 0 -9285479.510 -11814705.876 20635580.984 10 0 60459 34200.00000 0 -6712898.617 -11318422.816 21871417.835 10 0 60459 35100.00000 0 -3985346.650 -10999520.050 22683345.429 10 0 60459 36000.00000 0 -1168687.013 -10878802.409 23055516.488 10 0 60459 36900.00000 0 1667890.410 -10965196.508 22980582.961 10 0 60459 37800.00000 0 4454494.402 -11255349.003 22459847.458 10 0 60459 38700.00000 0 7123188.882 -11733756.886 21503249.817 10 0 60459 39600.00000 0 9610571.717 -12373425.485 20129188.168 10 0 60459 40500.00000 0 11860169.711 -13137027.800 18364176.744 10 0 60459 41400.00000 0 13824550.786 -13978517.801 16242345.719 10 0 60459 42300.00000 0 15467065.568 -14845131.003 13804791.403 10 0 60459 43200.00000 0 16763145.643 -15679688.965 11098788.144 10 0 60459 44100.00000 0 17701103.973 -16423111.053 8176876.218 10 0 60459 45000.00000 0 18282403.561 -17017027.441 5095842.858 10 0 60459 45900.00000 0 18521382.904 -17406382.427 1915616.006 10 0 60459 46800.00000 0 18444449.675 -17541917.003 -1301907.381 10 0 60459 47700.00000 0 18088776.879 -17382424.290 -4494074.958 10 0 60459 48600.00000 0 17500557.062 -16896680.758 -7598709.850 10 0 60459 49500.00000 0 16732889.172 -16064969.849 -10555333.515 10 0 60459 50400.00000 0 15843388.553 -14880131.910 -13306355.398 10 0 60459 51300.00000 0 14891622.404 -13348094.641 -15798204.929 10 0 60459 52200.00000 0 13936480.434 -11487860.493 -17982382.764 10 0 60459 53100.00000 0 13033593.037 -9330950.692 -19816409.983 10 0 60459 54000.00000 0 12232906.972 -6920328.744 -21264656.418 10 0 60459 54900.00000 0 11576521.454 -4308848.310 -22299031.947 10 0 60459 55800.00000 0 11096876.105 -1557290.390 -22899527.656 10 0 60459 56700.00000 0 10815366.881 1267928.131 -23054596.941 10 0 60459 57600.00000 0 10741447.641 4097278.983 -22761369.985 10 0 60459 58500.00000 0 10872254.269 6860774.976 -22025698.301 10 0 60459 59400.00000 0 11192766.016 9490640.361 -20862029.400 10 0 60459 60300.00000 0 11676496.117 11923888.637 -19293114.835 10 0 60459 61200.00000 0 12286681.424 14104701.439 -17349558.009 10 0 60459 62100.00000 0 12977919.978 15986510.800 -15069211.080 10 0 60459 63000.00000 0 13698186.736 17533699.541 -12496433.084 10 0 60459 63900.00000 0 14391141.952 18722850.655 -9681223.984 10 0 60459 64800.00000 0 14998634.640 19543495.373 -6678251.617 10 0 60459 65700.00000 0 15463295.478 19998330.580 -3545790.497 10 0 60459 66600.00000 0 15731109.953 20102898.260 -344593.077 10 0 60459 67500.00000 0 15753863.501 19884742.070 2863284.726 10 0 60459 68400.00000 0 15491355.878 19382077.779 6015681.173 10 0 60459 69300.00000 0 14913291.706 18642034.407 9051526.570 10 0 60459 70200.00000 0 14000767.778 17718540.572 11912018.578 10 0 60459 71100.00000 0 12747294.442 16669945.059 14541752.787 10 0 60459 72000.00000 0 11159307.829 15556471.450 16889787.305 10 0 60459 72900.00000 0 9256150.709 14437613.253 18910621.550 10 0 60459 73800.00000 0 7069521.638 13369578.232 20565071.120 10 0 60459 74700.00000 0 4642414.021 12402888.407 21821022.570 10 0 60459 75600.00000 0 2027587.554 11580235.660 22654054.151 10 0 60459 76500.00000 0 -714366.286 10934682.234 23047910.949 10 0 60459 77400.00000 0 -3517286.252 10488281.206 22994825.356 10 0 60459 78300.00000 0 -6311938.920 10251174.748 22495676.480 10 0 60459 79200.00000 0 -9028649.981 10221208.247 21559984.845 10 0 60459 80100.00000 0 -11599961.511 10384077.140 20205741.553 10 0 60459 81000.00000 0 -13963205.997 10714001.142 18459074.067 10 0 60459 81900.00000 0 -16062890.862 11174898.557 16353753.683 10 0 60459 82800.00000 0 -17852794.462 11722012.243 13930552.915 10 0 60459 83700.00000 0 -19297686.123 12303919.571 11236463.948 10 0 60459 84600.00000 0 -20374597.979 12864842.107 8323792.305 10 0 60459 85500.00000 0 -21073594.876 13347157.569 5249142.716 10 0 60460 0.00000 0 -21398009.510 13694007.468 2072316.972 10 0 60460 900.00000 0 -21364132.690 13851889.391 -1144856.286 10 0 60460 1800.00000 0 -21000371.277 13773122.475 -4339732.033 10 0 60460 2700.00000 0 -20345910.094 13418080.703 -7450080.682 10 0 60460 3600.00000 0 -19448934.328 12757097.226 -10415311.727 10 0 60460 4500.00000 0 -18364488.593 11771957.546 -13177665.695 10 0 60460 5400.00000 0 -17152064.162 10456916.776 -15683349.582 10 0 60460 6300.00000 0 -15873017.434 8819196.557 -17883592.624 10 0 60460 7200.00000 0 -14587929.792 6878939.611 -19735600.993 10 0 60460 8100.00000 0 -13354021.197 4668623.004 -21203392.465 10 0 60460 9000.00000 0 -12222727.156 2231954.255 -22258494.773 10 0 60460 9900.00000 0 -11237541.395 -377703.704 -22880494.372 10 0 60460 10800.00000 0 -10432214.785 -3099312.928 -23057425.551 10 0 60460 11700.00000 0 -9829385.649 -5866463.610 -22785993.129 10 0 60460 12600.00000 0 -9439697.956 -8609903.965 -22071625.292 10 0 60460 13500.00000 0 -9261443.183 -11260191.738 -20928356.468 10 0 60460 14400.00000 0 -9280739.348 -13750357.361 -19378543.319 10 0 60460 15300.00000 0 -9472238.169 -16018468.570 -17452420.111 10 0 60460 16200.00000 0 -9800329.120 -18009990.690 -15187502.660 10 0 60460 17100.00000 0 -10220788.400 -19679845.477 -12627852.830 10 0 60460 18000.00000 0 -10682802.325 -20994084.105 -9823218.195 10 0 60460 18900.00000 0 -11131279.111 -21931106.060 -6828063.724 10 0 60460 19800.00000 0 -11509351.088 -22482374.720 -3700514.351 10 0 60460 20700.00000 0 -11760961.621 -22652601.284 -501228.988 10 0 60460 21600.00000 0 -11833427.564 -22459390.929 2707772.277 10 0 60460 22500.00000 0 -11679869.352 -21932367.355 5864305.245 10 0 60460 23400.00000 0 -11261406.416 -21111813.459 8907219.974 10 0 60460 24300.00000 0 -10549025.556 -20046885.896 11777577.673 10 0 60460 25200.00000 0 -9525043.622 -18793478.732 14419783.876 10 0 60460 26100.00000 0 -8184102.720 -17411825.792 16782656.633 10 0 60460 27000.00000 0 -6533655.586 -15963941.820 18820409.797 10 0 60460 27900.00000 0 -4593919.803 -14511009.047 20493533.251 10 0 60460 28800.00000 0 -2397301.437 -13110817.796 21769553.779 10 0 60460 29700.00000 0 12689.542 -11815367.355 22623662.563 10 0 60460 30600.00000 0 2582988.832 -10668726.672 23039197.612 10 0 60460 31500.00000 0 5252929.960 -9705243.672 23007971.949 10 0 60460 32400.00000 0 7956520.015 -8948177.691 22530441.017 10 0 60460 33300.00000 0 10624946.426 -8408812.095 21615705.524 10 0 60460 34200.00000 0 13189212.339 -8086084.456 20281348.740 10 0 60460 35100.00000 0 15582792.495 -7966750.204 18553110.260 10 0 60460 36000.00000 0 17744200.036 -8026073.525 16464401.132 10 0 60460 36900.00000 0 19619357.785 -8229017.184 14055668.421 10 0 60460 37800.00000 0 21163675.093 -8531881.803 11373620.208 10 0 60460 38700.00000 0 22343743.137 -8884325.951 8470325.027 10 0 60460 39600.00000 0 23138577.000 -9231681.823 5402202.597 10 0 60460 40500.00000 0 23540351.779 -9517468.342 2228925.216 10 0 60460 41400.00000 0 23554601.108 -9685994.580 -987748.581 10 0 60460 42300.00000 0 23199869.242 -9684942.063 -4185184.685 10 0 60460 43200.00000 0 22506831.224 -9467815.094 -7301103.804 10 0 60460 44100.00000 0 21516918.380 -8996153.521 -10274806.366 10 0 60460 45000.00000 0 20280507.705 -8241412.463 -13048366.655 10 0 60460 45900.00000 0 18854752.347 -7186427.691 -15567771.656 10 0 60460 46800.00000 0 17301145.717 -5826403.132 -17783981.295 10 0 60460 47700.00000 0 15682923.035 -4169377.513 -19653888.631 10 0 60460 48600.00000 0 14062410.706 -2236149.465 -21141160.849 10 0 60460 49500.00000 0 12498435.829 -59663.501 -22216944.664 10 0 60460 50400.00000 0 11043905.122 2316117.775 -22860422.678 10 0 60460 51300.00000 0 9743654.880 4837808.234 -23059210.483 10 0 60460 52200.00000 0 8632661.662 7444593.026 -22809587.585 10 0 60460 53100.00000 0 7734687.778 10070540.358 -22116558.533 10 0 60460 54000.00000 0 7061417.008 12647134.001 -20993743.992 10 0 60460 54900.00000 0 6612115.112 15105921.274 -19463104.714 10 0 60460 55800.00000 0 6373827.569 17381166.579 -17554504.475 10 0 60460 56700.00000 0 6322104.402 19412400.657 -15305121.065 10 0 60460 57600.00000 0 6422219.849 21146760.218 -12758717.189 10 0 60460 58500.00000 0 6630834.066 22541021.448 -9964785.739 10 0 60460 59400.00000 0 6898025.648 23563243.815 -6977586.245 10 0 60460 60300.00000 0 7169608.369 24193956.886 -3855091.258 10 0 60460 61200.00000 0 7389633.874 24426841.933 -657863.156 10 0 60460 62100.00000 0 7502974.422 24268881.173 2552116.893 10 0 60460 63000.00000 0 7457876.653 23739969.620 5712645.337 10 0 60460 63900.00000 0 7208378.708 22872006.801 8762495.025 10 0 60460 64800.00000 0 6716488.919 21707507.127 11642593.602 10 0 60460 65700.00000 0 5954034.333 20297787.481 14297159.236 10 0 60460 66600.00000 0 4904101.126 18700807.971 16674772.344 10 0 60460 67500.00000 0 3562006.006 16978755.907 18729363.368 10 0 60460 68400.00000 0 1935757.036 15195473.419 20421098.315 10 0 60460 69300.00000 0 45983.454 13413835.424 21717145.712 10 0 60460 70200.00000 0 -2074664.123 11693186.495 22592310.814 10 0 60460 71100.00000 0 -4382619.966 10086942.625 23029525.294 10 0 60460 72000.00000 0 -6824971.923 8640457.117 23020183.093 10 0 60460 72900.00000 0 -9341429.437 7389238.921 22564315.785 10 0 60460 73800.00000 0 -11866611.165 6357597.331 21670603.519 10 0 60460 74700.00000 0 -14332558.959 5557769.508 20356220.447 10 0 60460 75600.00000 0 -16671375.235 4989567.335 18646516.454 10 0 60460 76500.00000 0 -18817875.091 4640558.752 16574539.991 10 0 60460 77400.00000 0 -20712143.255 4486776.326 14180409.882 10 0 60460 78300.00000 0 -22301889.305 4493923.733 11510546.961 10 0 60460 79200.00000 0 -23544502.376 4619029.655 8616779.402 10 0 60460 80100.00000 0 -24408718.618 4812479.389 5555338.413 10 0 60460 81000.00000 0 -24875830.568 5020338.090 2385763.587 10 0 60460 81900.00000 0 -24940386.690 5186866.693 -830260.649 10 0 60460 82800.00000 0 -24610350.791 5257122.935 -4030114.106 10 0 60460 83700.00000 0 -23906714.043 5179535.871 -7151470.895 10 0 60460 84600.00000 0 -22862575.692 4908343.094 -10133525.256 10 0 60460 85500.00000 0 -21521731.354 4405785.641 -12918187.864 10 0 60461 0.00000 0 -19936829.092 3643965.901 -15451227.774 10 0 60461 900.00000 0 -18167170.807 2606287.843 -17683337.998 10 0 60461 1800.00000 0 -16276254.664 1288418.326 -19571099.713 10 0 60461 2700.00000 0 -14329160.026 -301273.510 -21077830.477 10 0 60461 3600.00000 0 -12389887.621 -2141817.216 -22174296.393 10 0 60461 4500.00000 0 -10518766.268 -4200279.015 -22839276.054 10 0 60461 5400.00000 0 -8770035.112 -6432910.279 -23059965.651 10 0 60461 6300.00000 0 -7189702.250 -8786758.613 -22832218.157 10 0 60461 7200.00000 0 -5813768.564 -11201674.162 -22160612.812 10 0 60461 8100.00000 0 -4666889.777 -13612627.452 -21058354.475 10 0 60461 9000.00000 0 -3761531.037 -15952242.147 -19547005.629 10 0 60461 9900.00000 0 -3097647.525 -18153437.300 -17656056.976 10 0 60461 10800.00000 0 -2662902.357 -20152069.335 -15422345.565 10 0 60461 11700.00000 0 -2433410.595 -21889464.159 -12889332.155 10 0 60461 12600.00000 0 -2374976.188 -23314734.498 -10106252.205 10 0 60461 13500.00000 0 -2444768.141 -24386786.654 -7127157.134 10 0 60461 14400.00000 0 -2593363.995 -25075933.895 -4009864.571 10 0 60461 15300.00000 0 -2767073.487 -25365050.146 -814837.998 10 0 60461 16200.00000 0 -2910443.764 -25250216.829 2395982.547 10 0 60461 17100.00000 0 -2968840.138 -24740836.808 5560376.201 10 0 60461 18000.00000 0 -2890993.380 -23859211.565 8617040.509 10 0 60461 18900.00000 0 -2631406.204 -22639599.931 11506771.318 10 0 60461 19800.00000 0 -2152517.585 -21126798.119 14173601.055 10 0 60461 20700.00000 0 -1426533.759 -19374300.505 16565873.980 10 0 60461 21600.00000 0 -436848.731 -17442117.713 18637238.400 10 0 60461 22500.00000 0 821005.896 -15394342.518 20347537.497 10 0 60461 23400.00000 0 2338922.470 -13296564.304 21663582.317 10 0 60461 24300.00000 0 4096309.826 -11213238.811 22559792.682 10 0 60461 25200.00000 0 6060714.604 -9205121.674 23018694.114 10 0 60461 26100.00000 0 8188947.356 -7326871.574 23031261.359 10 0 60461 27000.00000 0 10428668.611 -5624921.872 22597101.722 10 0 60461 27900.00000 0 12720371.026 -4135708.640 21724474.139 10 0 60461 28800.00000 0 14999677.055 -2884328.497 20430142.738 10 0 60461 29700.00000 0 17199858.246 -1883682.045 18739066.575 10 0 60461 30600.00000 0 19254472.487 -1134138.688 16683930.167 10 0 60461 31500.00000 0 21100010.045 -623737.103 14304522.537 10 0 60461 32400.00000 0 22678438.129 -328913.155 11646975.488 10 0 60461 33300.00000 0 23939537.368 -215724.885 8762874.791 10 0 60461 34200.00000 0 24842931.566 -241522.967 5708260.867 10 0 60461 35100.00000 0 25359724.615 -356995.936 2542538.072 10 0 60461 36000.00000 0 25473674.586 -508503.122 -672685.991 10 0 60461 36900.00000 0 25181854.480 -640595.635 -3874807.888 10 0 60461 37800.00000 0 24494770.841 -698617.297 -7001458.001 10 0 60461 38700.00000 0 23435934.540 -631273.771 -9991727.172 10 0 60461 39600.00000 0 22040901.546 -393059.262 -12787365.075 10 0 60461 40500.00000 0 20355824.167 53563.773 -15333925.647 10 0 60461 41400.00000 0 18435574.202 736325.828 -17581836.141 10 0 60461 42300.00000 0 16341517.631 1671731.718 -19487368.107 10 0 60461 43200.00000 0 14139035.148 2864123.203 -21013490.945 10 0 60461 44100.00000 0 11894893.330 4305263.333 -22130591.315 10 0 60461 45000.00000 0 9674577.197 5974460.562 -22817044.658 10 0 60461 45900.00000 0 7539696.054 7839227.803 -23059628.311 10 0 60461 46800.00000 0 5545570.908 9856448.901 -22853768.921 10 0 60461 47700.00000 0 3739103.636 11974003.649 -22203620.265 10 0 60461 48600.00000 0 2157015.785 14132783.338 -21121970.859 10 0 60461 49500.00000 0 824528.986 16269012.557 -19629984.000 10 0 60461 50400.00000 0 -245459.752 18316780.287 -17756776.018 10 0 60461 51300.00000 0 -1052675.527 20210674.748 -15538841.554 10 0 60461 52200.00000 0 -1609225.603 21888412.323 -13019337.415 10 0 60461 53100.00000 0 -1938834.270 23293351.155 -10247239.308 10 0 60461 54000.00000 0 -2075586.661 24376785.051 -7276387.957 10 0 60461 54900.00000 0 -2062236.070 25099922.526 -4164443.271 10 0 60461 55800.00000 0 -1948147.426 25435469.026 -971766.871 10 0 60461 56700.00000 0 -1786964.557 25368746.973 2239745.367 10 0 60461 57600.00000 0 -1634100.255 24898307.595 5407858.324 10 0 60461 58500.00000 0 -1544155.302 24036009.589 8471197.223 10 0 60461 59400.00000 0 -1568375.357 22806561.869 11370428.975 10 0 60461 60300.00000 0 -1752252.849 21246549.774 14049402.941 10 0 60461 61200.00000 0 -2133374.751 19402985.416 16456229.678 10 0 60461 62100.00000 0 -2739606.834 17331442.367 18544277.570 10 0 60461 63000.00000 0 -3587690.914 15093851.836 20273068.918 10 0 60461 63900.00000 0 -4682314.507 12756051.304 21609058.946 10 0 60461 64800.00000 0 -6015692.782 10385186.554 22526283.373 10 0 60461 65700.00000 0 -7567681.647 8047073.931 23006862.547 10 0 60461 66600.00000 0 -9306418.868 5803631.344 23041352.587 10 0 60461 67500.00000 0 -11189468.401 3710483.621 22628936.636 10 0 60461 68400.00000 0 -13165422.261 1814840.846 21777452.010 10 0 60461 69300.00000 0 -15175895.137 153737.254 20503251.864 10 0 60461 70200.00000 0 -17157830.414 -1247296.436 18830902.914 10 0 60461 71100.00000 0 -19046022.889 -2375072.060 16792723.673 10 0 60461 72000.00000 0 -20775753.827 -3229059.337 14428170.792 10 0 60461 72900.00000 0 -22285428.662 -3821164.191 11783084.024 10 0 60461 73800.00000 0 -23519106.863 -4174979.212 8908803.383 10 0 60461 74700.00000 0 -24428817.233 -4324537.759 5861174.892 10 0 60461 75600.00000 0 -24976560.461 -4312624.426 2699463.954 10 0 60461 76500.00000 0 -25135913.416 -4188713.649 -514802.409 10 0 60461 77400.00000 0 -24893166.282 -4006624.483 -3719041.227 10 0 60461 78300.00000 0 -24247943.321 -3821991.963 -6850842.723 10 0 60461 79200.00000 0 -23213280.041 -3689663.615 -9849197.730 10 0 60461 80100.00000 0 -21815152.739 -3661133.080 -12655698.069 10 0 60461 81000.00000 0 -20091479.913 -3782121.266 -15215685.160 10 0 60461 81900.00000 0 -18090637.584 -4090409.106 -17479323.370 10 0 60461 82800.00000 0 -15869551.317 -4614015.082 -19402576.304 10 0 60461 83700.00000 0 -13491445.623 -5369795.738 -20948066.524 10 0 60461 84600.00000 0 -11023345.714 -6362529.158 -22085801.908 10 0 60461 85500.00000 0 -8533436.795 -7584520.602 -22793754.719 10 0 60462 0.00000 0 -6088391.821 -9015747.058 -23058282.702 10 0 60462 900.00000 0 -3750777.997 -10624535.524 -22874384.858 10 0 60462 1800.00000 0 -1576653.049 -12368744.459 -22245787.512 10 0 60462 2700.00000 0 386553.705 -14197401.279 -21184860.423 10 0 60462 3600.00000 0 2101785.237 -16052725.265 -19712364.910 10 0 60462 4500.00000 0 3543655.935 -17872451.758 -17857039.881 10 0 60462 5400.00000 0 4699253.542 -19592360.272 -15655034.337 10 0 60462 6300.00000 0 5568412.700 -21148900.825 -13149197.836 10 0 60462 7200.00000 0 6163450.865 -22481808.834 -10388243.024 10 0 60462 8100.00000 0 6508379.943 -23536599.489 -7425796.710 10 0 60462 9000.00000 0 6637628.725 -24266837.710 -4319357.999 10 0 60462 9900.00000 0 6594331.523 -24636089.171 -1129183.772 10 0 60462 10800.00000 0 6428256.383 -24619471.310 2082876.918 10 0 60462 11700.00000 0 6193461.087 -24204739.975 5254577.081 10 0 60462 12600.00000 0 5945776.277 -23392866.673 8324471.731 10 0 60462 13500.00000 0 5740222.043 -22198082.661 11233100.657 10 0 60462 14400.00000 0 5628466.816 -20647388.142 13924131.679 10 0 60462 15300.00000 0 5656435.455 -18779546.976 16345442.865 10 0 60462 16200.00000 0 5862167.025 -16643608.444 18450123.570 10 0 60462 17100.00000 0 6274012.288 -14297016.969 20197375.789 10 0 60462 18000.00000 0 6909246.771 -11803387.543 21553299.167 10 0 60462 18900.00000 0 7773158.089 -9230038.182 22491545.248 10 0 60462 19800.00000 0 8858646.659 -6645380.586 22993828.823 10 0 60462 20700.00000 0 10146357.752 -4116276.032 23050286.724 10 0 60462 21600.00000 0 11605340.967 -1705464.930 22659677.025 10 0 60462 22500.00000 0 13194211.414 530824.395 21829414.308 10 0 60462 23400.00000 0 14862765.988 2544989.247 20575439.469 10 0 60462 24300.00000 0 16553989.064 4299801.203 18921925.441 10 0 60462 25200.00000 0 18206365.377 5769717.405 16900823.167 10 0 60462 26100.00000 0 19756404.532 6941699.880 14551255.214 10 0 60462 27000.00000 0 21141272.115 7815508.621 11918767.435 10 0 60462 27900.00000 0 22301417.260 8403456.028 9054452.073 10 0 60462 28800.00000 0 23183085.878 8729632.924 6013958.584 10 0 60462 29700.00000 0 23740613.013 8828638.848 2856411.071 10 0 60462 30600.00000 0 23938396.552 8743870.500 -356746.497 10 0 60462 31500.00000 0 23752467.625 8525441.305 -3562954.164 10 0 60462 32400.00000 0 23171589.965 8227821.097 -6699764.556 10 0 60462 33300.00000 0 22197840.461 7907297.133 -9706070.982 10 0 60462 34200.00000 0 20846645.269 7619365.477 -12523309.731 10 0 60462 35100.00000 0 19146269.182 7416164.872 -15096611.808 10 0 60462 36000.00000 0 17136779.305 7344063.329 -17375880.544 10 0 60462 36900.00000 0 14868526.611 7441501.009 -19316773.164 10 0 60462 37800.00000 0 12400209.332 7737181.753 -20881566.707 10 0 60462 38700.00000 0 9796599.773 8248690.526 -22039891.332 10 0 60462 39600.00000 0 7126030.135 8981595.581 -22769316.939 10 0 60462 40500.00000 0 4457742.723 9929073.398 -23055782.257 10 0 60462 41400.00000 0 1859215.195 11072072.079 -22893858.817 10 0 60462 42300.00000 0 -606427.877 12380006.080 -22286845.526 10 0 60462 43200.00000 0 -2882809.979 13811952.708 -21246692.964 10 0 60462 44100.00000 0 -4922405.491 15318299.785 -19793759.655 10 0 60462 45000.00000 0 -6688264.290 16842774.997 -17956405.864 10 0 60462 45900.00000 0 -8155288.068 18324771.553 -15770433.368 10 0 60462 46800.00000 0 -9311007.243 19701872.567 -13278382.539 10 0 60462 47700.00000 0 -10155828.222 20912468.262 -10528700.759 10 0 60462 48600.00000 0 -10702742.948 21898356.475 -7574798.488 10 0 60462 49500.00000 0 -10976515.048 22607217.639 -4474011.436 10 0 60462 50400.00000 0 -11012378.658 22994860.833 -1286489.045 10 0 60462 51300.00000 0 -10854306.194 23027147.093 1925969.190 10 0 60462 52200.00000 0 -10552919.173 22681509.776 5101107.162 10 0 60462 53100.00000 0 -10163130.850 21948008.574 8177412.385 10 0 60462 54000.00000 0 -9741620.372 20829873.255 11095300.171 10 0 60462 54900.00000 0 -9344244.954 19343514.373 13798259.335 10 0 60462 55800.00000 0 -9023498.867 17518000.307 16233937.861 10 0 60462 56700.00000 0 -8826125.896 15394021.926 18355148.331 10 0 60462 57600.00000 0 -8790985.365 13022387.222 20120774.494 10 0 60462 58500.00000 0 -8947261.211 10462107.556 21496562.271 10 0 60462 59400.00000 0 -9313089.333 7778153.708 22455780.627 10 0 60462 60300.00000 0 -9894661.180 5038973.490 22979740.102 10 0 60462 61200.00000 0 -10685841.900 2313872.398 23058159.192 10 0 60462 62100.00000 0 -11668320.170 -329635.532 22689371.448 10 0 60462 63000.00000 0 -12812284.916 -2828398.156 21880368.804 10 0 60462 63900.00000 0 -14077602.237 -5126011.346 20646679.470 10 0 60462 64800.00000 0 -15415444.986 -7174922.544 19012081.639 10 0 60462 65700.00000 0 -16770308.396 -8938164.772 17008157.168 10 0 60462 66600.00000 0 -18082328.542 -10390649.051 14673692.497 10 0 60462 67500.00000 0 -19289807.326 -11519961.282 12053937.054 10 0 60462 68400.00000 0 -20331838.271 -12326630.089 9199732.359 10 0 60462 69300.00000 0 -21150922.531 -12823854.247 6166528.013 10 0 60462 70200.00000 0 -21695464.244 -13036701.085 3013303.282 10 0 60462 71100.00000 0 -21922038.867 -13000809.799 -198584.615 10 0 60462 72000.00000 0 -21797337.338 -12760654.839 -3406602.514 10 0 60462 72900.00000 0 -21299702.322 -12367443.540 -6548269.229 10 0 60462 73800.00000 0 -20420190.067 -11876738.022 -9562384.259 10 0 60462 74700.00000 0 -19163111.605 -11345903.378 -12390231.932 10 0 60462 75600.00000 0 -17546029.272 -10831491.650 -14976736.177 10 0 60462 76500.00000 0 -15599207.861 -10386673.850 -17271542.283 10 0 60462 77400.00000 0 -13364543.079 -10058830.042 -19230003.644 10 0 60462 78300.00000 0 -10894012.147 -9887400.531 -20814053.755 10 0 60462 79200.00000 0 -8247711.652 -9902089.701 -21992946.376 10 0 60462 80100.00000 0 -5491565.001 -10121498.790 -22743849.642 10 0 60462 81000.00000 0 -2694795.542 -10552245.275 -23052283.119 10 0 60462 81900.00000 0 72729.177 -11188605.733 -22912390.053 10 0 60462 82800.00000 0 2743171.415 -12012696.736 -22327040.395 10 0 60462 83700.00000 0 5253304.659 -12995185.498 -21307763.479 10 0 60462 84600.00000 0 7546895.870 -14096499.776 -19874512.520 10 0 60462 85500.00000 0 9576790.562 -15268485.482 -18055266.256 99